IK1GVQ Weather Reports


Display with metric or nautical units.
time (UTC)temp
F
wind
direction
speed
MPH
gust
MPH
rain 1hr
in
rain 24hr
in
rain mn
in
humidity
%
barometer
mb
20260506224003 56 285 0.0 3.0 0.00 0.64 0.00 82 1010.7
20260506223504 56 280 0.0 3.0 0.00 0.64 0.00 81 1010.6
20260506223003 56 50 0.0 2.0 0.00 0.64 0.00 81 1010.5
20260506222503 56 68 0.0 5.0 0.00 0.64 0.00 81 1010.4
20260506222003 56 71 0.0 5.0 0.00 0.64 0.00 81 1010.3
20260506221504 56 71 0.0 1.0 0.00 0.64 0.00 81 1010.4
20260506221003 57 0 0.0 0.0 0.00 0.64 0.00 81 1010.5
20260506220503 57 0 0.0 0.0 0.00 0.64 0.00 81 1010.6
20260506220005 57 0 0.0 0.0 0.00 0.64 0.00 81 1010.8
20260506215503 58 0 0.0 0.0 0.00 0.64 0.64 80 1010.7
20260506215215 58 0 0.0 0.0 0.00 0.64 0.64 80 1010.7
20260506214503 58 0 0.0 0.0 0.00 0.64 0.64 80 1010.6
20260506214004 58 341 0.0 1.0 0.00 0.64 0.64 80 1010.6
20260506213714 58 341 0.0 1.0 0.00 0.64 0.64 80 1010.6
20260506213004 57 0 0.0 0.0 0.00 0.64 0.64 80 1010.6
20260506212503 57 0 0.0 0.0 0.00 0.64 0.64 80 1010.5
20260506212003 57 0 0.0 0.0 0.00 0.64 0.64 80 1010.5
20260506211503 57 0 0.0 0.0 0.00 0.64 0.64 80 1010.4
20260506211003 58 0 0.0 0.0 0.00 0.64 0.64 79 1010.4
20260506210503 58 73 0.0 1.0 0.00 0.64 0.64 79 1010.4
20260506210004 58 70 0.0 1.0 0.00 0.64 0.64 79 1010.3
20260506205503 58 64 0.0 1.0 0.00 0.64 0.64 79 1010.3
20260506205003 58 0 0.0 0.0 0.00 0.64 0.64 79 1010.2
20260506204503 58 0 0.0 0.0 0.00 0.64 0.64 79 1010.1
20260506204003 58 0 0.0 0.0 0.00 0.64 0.64 79 1010.1
20260506203504 58 56 0.0 1.0 0.00 0.64 0.64 79 1010.0
20260506203003 58 28 0.0 2.0 0.00 0.64 0.64 78 1010.0
20260506202503 58 19 0.0 2.0 0.00 0.64 0.64 78 1010.0
20260506202003 58 0 0.0 0.0 0.00 0.64 0.64 78 1009.9
20260506201503 58 29 0.0 1.0 0.00 0.64 0.64 78 1009.8
20260506201215 58 29 0.0 1.0 0.00 0.64 0.64 78 1009.8
20260506200713 58 16 0.0 1.0 0.00 0.64 0.64 78 1009.8
20260506200216 58 355 0.0 1.0 0.00 0.64 0.64 78 1009.7
20260506195504 58 24 0.0 1.0 0.00 0.64 0.64 77 1009.6
20260506195003 58 35 0.0 1.0 0.00 0.64 0.64 77 1009.4
20260506194715 58 35 0.0 1.0 0.00 0.64 0.64 77 1009.3
20260506194003 58 9 0.0 2.0 0.00 0.64 0.64 77 1009.2
20260506193504 58 15 0.0 2.0 0.00 0.64 0.64 77 1009.2
20260506193003 59 55 0.0 1.0 0.00 0.64 0.64 77 1009.1
20260506192503 59 5 0.0 1.0 0.00 0.64 0.64 77 1009.0
20260506192004 59 348 0.0 2.0 0.00 0.64 0.64 77 1008.9
20260506191505 59 342 0.0 3.0 0.00 0.64 0.64 77 1008.8
20260506191003 59 339 0.0 3.0 0.00 0.64 0.64 77 1008.7
20260506190713 59 8 0.0 3.0 0.00 0.64 0.64 77 1008.6
20260506190004 59 9 0.0 3.0 0.00 0.64 0.64 78 1008.5
20260506185504 59 352 0.0 3.0 0.00 0.64 0.64 78 1008.4
20260506185003 59 67 0.0 1.0 0.00 0.64 0.64 78 1008.4
20260506184715 59 50 0.0 2.0 0.00 0.64 0.64 78 1008.3
20260506184004 60 48 0.0 2.0 0.00 0.64 0.64 78 1008.2
20260506183716 60 60 0.0 1.0 0.00 0.64 0.64 78 1008.2
20260506183004 60 19 0.0 2.0 0.00 0.64 0.64 79 1008.1
20260506182503 60 19 0.0 2.0 0.00 0.64 0.64 79 1007.9
20260506182004 60 0 0.0 0.0 0.00 0.64 0.64 79 1007.8
20260506181713 60 0 0.0 0.0 0.00 0.64 0.64 79 1007.8
20260506181003 61 0 0.0 0.0 0.00 0.64 0.64 78 1007.5
20260506180503 61 67 0.0 3.0 0.00 0.64 0.64 78 1007.4
20260506180004 61 67 0.0 3.0 0.00 0.64 0.64 78 1007.3
20260506175504 61 75 0.0 5.0 0.00 0.64 0.64 77 1007.2
20260506175004 61 68 0.0 5.0 0.00 0.64 0.64 77 1007.2
20260506174503 62 48 0.0 3.0 0.00 0.64 0.64 77 1007.1
20260506174004 62 74 0.0 5.0 0.00 0.64 0.64 77 1007.1
20260506173717 62 73 0.0 5.0 0.00 0.64 0.64 77 1007.0
20260506173004 62 79 1.0 7.0 0.00 0.64 0.64 76 1006.8
20260506172504 62 88 2.0 14.0 0.00 0.64 0.64 75 1006.8
20260506172003 63 81 2.0 14.0 0.00 0.64 0.64 74 1006.8
20260506171503 63 79 3.0 9.0 0.00 0.64 0.64 74 1006.8
20260506171003 63 85 2.0 8.0 0.00 0.64 0.64 73 1006.7
20260506170504 64 80 3.0 13.0 0.00 0.64 0.64 73 1006.7
20260506170003 64 77 4.0 13.0 0.00 0.64 0.64 72 1006.6
20260506165504 65 79 5.0 12.0 0.00 0.64 0.64 71 1006.6
20260506165004 66 79 3.0 11.0 0.00 0.64 0.64 69 1006.4
20260506164503 66 60 1.0 7.0 0.00 0.64 0.64 62 1006.2
20260506164004 66 63 1.0 7.0 0.00 0.64 0.64 61 1006.0
20260506163503 66 71 1.0 7.0 0.00 0.64 0.64 60 1006.0
20260506163216 66 73 1.0 10.0 0.00 0.64 0.64 63 1006.0
20260506162713 66 77 2.0 10.0 0.00 0.64 0.64 61 1006.0
20260506162003 67 76 1.0 6.0 0.00 0.64 0.64 60 1005.9
20260506161503 67 39 0.0 8.0 0.00 0.64 0.64 61 1005.9
20260506161003 67 48 1.0 8.0 0.00 0.64 0.64 59 1005.8
20260506160504 68 13 1.0 6.0 0.00 0.64 0.64 59 1005.8
20260506160213 68 9 1.0 6.0 0.00 0.64 0.64 59 1005.8
20260506155716 68 348 1.0 6.0 0.00 0.64 0.64 59 1005.7
20260506155003 68 334 2.0 6.0 0.00 0.64 0.64 61 1005.7
20260506154503 68 330 2.0 8.0 0.00 0.64 0.64 61 1005.7
20260506154215 67 328 3.0 8.0 0.00 0.64 0.64 61 1005.7
20260506153503 67 321 4.0 9.0 0.00 0.64 0.64 61 1005.7
20260506153216 67 321 4.0 9.0 0.00 0.64 0.64 62 1005.8
20260506152503 67 323 3.0 8.0 0.00 0.64 0.64 63 1006.0
20260506152003 68 324 2.0 8.0 0.00 0.64 0.64 64 1006.1
20260506151715 68 327 1.0 6.0 0.00 0.64 0.64 65 1006.1
20260506151003 67 332 2.0 6.0 0.00 0.64 0.64 64 1006.1
20260506150504 67 328 2.0 6.0 0.00 0.64 0.64 64 1006.3
20260506150004 67 323 3.0 6.0 0.00 0.64 0.64 67 1006.4
20260506145503 66 324 3.0 6.0 0.00 0.64 0.64 67 1006.4
20260506145003 66 329 2.0 6.0 0.00 0.64 0.64 69 1006.4
20260506144503 66 327 3.0 11.0 0.00 0.64 0.64 70 1006.4
20260506144003 65 319 4.0 15.0 0.00 0.64 0.64 67 1006.3
20260506143714 66 317 3.0 15.0 0.00 0.64 0.64 67 1006.4
20260506143004 67 325 0.0 4.0 0.00 0.64 0.64 64 1006.4
20260506142504 67 325 0.0 4.0 0.00 0.64 0.64 64 1006.4
20260506142003 67 322 0.0 4.0 0.00 0.64 0.64 64 1006.4
20260506141715 67 322 0.0 4.0 0.00 0.64 0.64 64 1006.4
20260506141003 67 115 0.0 2.0 0.00 0.64 0.64 67 1006.4
20260506140503 66 109 0.0 2.0 0.00 0.64 0.64 66 1006.5
20260506140004 67 88 0.0 3.0 0.00 0.64 0.64 66 1006.5
20260506135712 67 85 0.0 3.0 0.00 0.64 0.64 65 1006.5
20260506135003 67 81 0.0 4.0 0.00 0.64 0.64 64 1006.5
20260506134503 67 335 0.0 4.0 0.00 0.64 0.64 64 1006.4
20260506134003 67 322 0.0 5.0 0.00 0.64 0.64 64 1006.6
20260506133715 67 330 0.0 5.0 0.00 0.64 0.64 64 1006.6
20260506133003 68 34 0.0 3.0 0.00 0.64 0.64 65 1006.6
20260506132503 68 74 0.0 7.0 0.00 0.64 0.64 67 1006.6
20260506132003 67 77 0.0 7.0 0.00 0.64 0.64 66 1006.7
20260506131503 67 70 0.0 5.0 0.00 0.64 0.64 68 1006.7
20260506131003 67 77 1.0 10.0 0.00 0.64 0.64 68 1006.7
20260506130503 67 77 1.0 10.0 0.00 0.64 0.64 70 1006.7
20260506130004 67 72 0.0 7.0 0.00 0.64 0.64 69 1006.7
20260506125713 68 38 0.0 3.0 0.00 0.64 0.64 69 1006.8
20260506125004 67 27 0.0 6.0 0.00 0.64 0.64 71 1006.8
20260506124714 67 31 0.0 6.0 0.00 0.64 0.64 71 1006.8
20260506124003 67 324 2.0 7.0 0.00 0.64 0.64 73 1006.9
20260506123503 67 330 1.0 7.0 0.00 0.64 0.64 69 1006.9
20260506123003 67 94 0.0 5.0 0.00 0.64 0.64 70 1006.9
20260506122503 67 121 0.0 4.0 0.00 0.64 0.64 67 1006.8
20260506122004 66 227 0.0 2.0 0.00 0.64 0.64 69 1006.8
20260506121717 66 0 0.0 0.0 0.00 0.64 0.64 67 1006.8
20260506121003 65 268 0.0 4.0 0.00 0.64 0.64 70 1006.8
20260506120504 65 222 1.0 5.0 0.00 0.64 0.64 69 1006.9
20260506120004 65 188 1.0 5.0 0.00 0.64 0.64 72 1006.9
20260506115503 65 119 0.0 3.0 0.00 0.64 0.64 72 1006.9
20260506115003 64 109 0.0 6.0 0.00 0.64 0.64 72 1006.9
20260506114503 64 109 0.0 6.0 0.00 0.64 0.64 71 1006.9
20260506114003 65 0 0.0 0.0 0.00 0.64 0.64 74 1006.9
20260506113503 64 119 0.0 3.0 0.00 0.64 0.64 74 1006.9
20260506113003 64 114 0.0 3.0 0.00 0.64 0.64 74 1006.9
20260506112503 64 113 1.0 5.0 0.00 0.64 0.64 75 1006.9
20260506112003 64 113 0.0 5.0 0.00 0.64 0.64 76 1006.9
20260506111717 63 0 0.0 0.0 0.00 0.64 0.64 78 1006.9
20260506111003 62 129 0.0 4.0 0.00 0.64 0.64 77 1007.1
20260506110713 62 128 0.0 4.0 0.00 0.64 0.64 78 1007.1
20260506110004 62 167 0.0 5.0 0.00 0.64 0.64 79 1007.2
20260506105503 61 176 0.0 3.0 0.00 0.64 0.64 78 1007.2
20260506105003 61 191 1.0 4.0 0.00 0.64 0.64 78 1007.3
20260506104504 62 177 1.0 4.0 0.00 0.64 0.64 80 1007.3
20260506104003 61 145 0.0 4.0 0.00 0.64 0.64 80 1007.3
20260506103503 61 6 0.0 1.0 0.00 0.64 0.64 80 1007.3
20260506103004 61 137 1.0 4.0 0.00 0.64 0.64 80 1007.2
20260506102504 60 138 1.0 4.0 0.00 0.64 0.64 80 1007.1
20260506102004 60 144 0.0 3.0 0.00 0.64 0.64 80 1007.2
20260506101503 60 144 0.0 3.0 0.00 0.64 0.64 80 1007.2
20260506101003 59 146 0.0 3.0 0.00 0.64 0.64 79 1007.2
20260506100503 58 160 0.0 3.0 0.00 0.64 0.64 78 1007.3
20260506100003 58 285 0.0 3.0 0.00 0.64 0.64 71 1007.3
20260506095503 57 284 0.0 3.0 0.00 0.64 0.64 67 1007.3
20260506095003 56 285 0.0 3.0 0.00 0.64 0.64 62 1007.3
20260506094716 56 321 0.0 4.0 0.01 0.64 0.64 64 1007.3
20260506094003 55 322 1.0 4.0 0.01 0.64 0.64 57 1007.2
20260506093503 54 283 0.0 6.0 0.01 0.64 0.64 58 1007.3
20260506093215 54 269 1.0 6.0 0.02 0.64 0.64 53 1007.3
20260506092503 54 296 1.0 6.0 0.02 0.65 0.64 54 1007.3
20260506092003 53 304 1.0 6.0 0.02 0.65 0.64 52 1007.4
20260506091503 53 298 1.0 9.0 0.03 0.65 0.64 48 1007.4
20260506091003 52 303 1.0 9.0 0.05 0.65 0.64 47 1007.4
20260506090503 52 303 1.0 8.0 0.06 0.65 0.64 46 1007.5
20260506090003 52 293 1.0 5.0 0.06 0.65 0.64 46 1007.5
20260506085504 52 293 0.0 5.0 0.07 0.65 0.64 48 1007.5
20260506085004 52 303 0.0 4.0 0.08 0.65 0.64 46 1007.5
20260506084503 52 307 0.0 4.0 0.08 0.64 0.63 46 1007.5
20260506084003 52 320 0.0 5.0 0.08 0.64 0.63 46 1007.6
20260506083503 52 318 0.0 5.0 0.09 0.64 0.63 47 1007.6
20260506083003 52 313 0.0 4.0 0.09 0.63 0.62 47 1007.6
20260506082503 51 304 0.0 2.0 0.09 0.62 0.61 46 1007.6
20260506082216 51 305 0.0 2.0 0.10 0.62 0.61 46 1007.6
20260506081503 51 311 0.0 2.0 0.10 0.61 0.61 46 1007.7
20260506081003 51 314 0.0 1.0 0.09 0.60 0.59 46 1007.7
20260506080503 51 0 0.0 0.0 0.09 0.59 0.58 46 1007.7
20260506080213 51 0 0.0 0.0 0.09 0.58 0.57 46 1007.8
20260506073503 51 318 1.0 6.0 0.31 0.55 0.54 49 1007.8
20260506073003 51 319 2.0 8.0 0.31 0.55 0.54 51 1007.8
20260506072504 52 320 2.0 8.0 0.29 0.54 0.52 49 1007.7
20260506072003 52 317 1.0 8.0 0.28 0.52 0.50 46 1007.8
20260506071504 52 315 0.0 4.0 0.28 0.52 0.50 46 1007.7
20260506071004 52 310 1.0 4.0 0.28 0.51 0.50 46 1007.8
20260506070504 52 305 0.0 4.0 0.28 0.50 0.49 46 1007.8
20260506062505 52 302 0.0 1.0 0.09 0.25 0.23 47 1007.9
20260506062004 52 305 0.0 1.0 0.09 0.24 0.22 47 1007.9
20260506061504 52 0 0.0 0.0 0.09 0.24 0.22 47 1007.8
20260506061214 52 0 0.0 0.0 0.08 0.24 0.21 47 1007.8
20260506060716 52 0 0.0 0.0 0.08 0.24 0.21 47 1007.8
20260506051003 52 0 0.0 0.0 0.06 0.23 0.13 48 1008.2
20260506050717 52 0 0.0 0.0 0.07 0.24 0.13 48 1008.2
20260506045003 52 34 0.0 3.0 0.10 0.28 0.13 49 1008.4
20260506044504 52 37 0.0 3.0 0.10 0.28 0.13 49 1008.3
20260506044003 52 58 0.0 1.0 0.09 0.28 0.12 49 1008.3
20260506043504 52 45 0.0 1.0 0.09 0.28 0.11 50 1008.6
20260506043003 52 0 0.0 0.0 0.09 0.29 0.10 50 1008.7
20260506042503 52 0 0.0 0.0 0.08 0.29 0.09 50 1008.7
20260506042003 52 0 0.0 0.0 0.07 0.29 0.09 49 1008.6
20260506041503 52 44 0.0 2.0 0.06 0.29 0.08 49 1008.7
20260506041215 52 44 0.0 2.0 0.06 0.29 0.08 49 1008.7
20260506040503 52 0 0.0 0.0 0.05 0.28 0.06 49 1008.7
20260506040003 52 0 0.0 0.0 0.04 0.28 0.06 50 1008.8
20260506035503 52 0 0.0 0.0 0.03 0.27 0.05 49 1008.8
20260506035004 52 0 0.0 0.0 0.02 0.26 0.03 50 1008.7
20260506034504 52 0 0.0 0.0 0.01 0.25 0.02 50 1008.7
20260506034005 52 0 0.0 0.0 0.01 0.25 0.02 50 1008.8
20260506033716 52 0 0.0 0.0 0.00 0.24 0.02 50 1008.9
20260506033004 52 0 0.0 0.0 0.00 0.24 0.02 50 1009.0
20260506032716 52 0 0.0 0.0 0.00 0.24 0.02 50 1009.1
20260506032214 52 0 0.0 0.0 0.00 0.24 0.02 50 1009.2
20260506031712 52 0 0.0 0.0 0.00 0.24 0.02 50 1009.2
20260506031004 52 0 0.0 0.0 0.00 0.24 0.02 50 1009.3
20260506030503 52 0 0.0 0.0 0.00 0.24 0.02 51 1009.4
20260506030004 52 0 0.0 0.0 0.00 0.24 0.02 51 1009.4
20260506025504 52 0 0.0 0.0 0.00 0.24 0.02 51 1009.5
20260506025217 52 0 0.0 0.0 0.00 0.24 0.02 51 1009.6
20260506024503 52 0 0.0 0.0 0.00 0.24 0.02 51 1009.4
20260506024003 52 0 0.0 0.0 0.00 0.24 0.02 51 1009.5
20260506023503 52 0 0.0 0.0 0.00 0.24 0.02 51 1009.6
20260506023214 52 0 0.0 0.0 0.00 0.24 0.02 52 1009.6
20260506022503 53 0 0.0 0.0 0.00 0.24 0.02 52 1009.8
20260506022003 53 0 0.0 0.0 0.01 0.24 0.02 52 1009.9
20260506021503 53 0 0.0 0.0 0.01 0.24 0.02 53 1009.8
20260506021003 53 0 0.0 0.0 0.01 0.24 0.02 53 1009.9
20260506020714 53 0 0.0 0.0 0.01 0.24 0.02 53 1009.8
20260506020004 53 0 0.0 0.0 0.01 0.24 0.02 52 1009.7
20260506015503 53 0 0.0 0.0 0.01 0.24 0.02 52 1009.8
20260506015213 53 0 0.0 0.0 0.01 0.24 0.02 52 1009.7
20260506014503 53 0 0.0 0.0 0.02 0.24 0.02 53 1009.8
20260506014003 53 0 0.0 0.0 0.02 0.24 0.02 53 1009.9
20260506013503 53 0 0.0 0.0 0.02 0.24 0.02 53 1009.9
20260506013003 53 0 0.0 0.0 0.02 0.24 0.02 53 1010.0
20260506012503 53 0 0.0 0.0 0.02 0.24 0.02 53 1010.0
20260506012004 53 0 0.0 0.0 0.01 0.24 0.01 53 1010.1
20260506011504 53 0 0.0 0.0 0.01 0.24 0.01 53 1010.3
20260506011217 53 0 0.0 0.0 0.01 0.24 0.01 53 1010.4
20260506010503 53 0 0.0 0.0 0.01 0.24 0.01 52 1010.5
20260506010004 53 0 0.0 0.0 0.01 0.24 0.01 52 1010.6
20260506005503 53 0 0.0 0.0 0.01 0.24 0.01 53 1010.6
20260506005003 53 0 0.0 0.0 0.00 0.24 0.00 53 1010.8
20260506004504 53 0 0.0 0.0 0.00 0.24 0.00 53 1010.9
20260506004003 53 0 0.0 0.0 0.00 0.25 0.00 54 1010.9
20260506003503 54 0 0.0 0.0 0.00 0.25 0.00 54 1011.0
20260506003003 54 0 0.0 0.0 0.00 0.25 0.00 54 1011.0
20260506002504 54 0 0.0 0.0 0.00 0.25 0.00 53 1011.0
20260506002003 54 0 0.0 0.0 0.00 0.25 0.00 54 1011.1
20260506001503 54 0 0.0 0.0 0.00 0.25 0.00 53 1011.2
20260506001004 54 0 0.0 0.0 0.00 0.25 0.00 53 1011.1
20260506000503 54 0 0.0 0.0 0.00 0.25 0.00 54 1011.3
20260506000003 54 0 0.0 0.0 0.00 0.25 0.00 54 1011.4
20260505235717 54 0 0.0 0.0 0.00 0.25 0.00 54 1011.4
20260505235003 54 0 0.0 0.0 0.00 0.25 0.00 54 1011.5
20260505234503 54 0 0.0 0.0 0.00 0.25 0.00 54 1011.4
20260505234215 54 0 0.0 0.0 0.00 0.25 0.00 55 1011.4
20260505233713 54 0 0.0 0.0 0.00 0.25 0.00 55 1011.4
20260505233003 54 0 0.0 0.0 0.00 0.25 0.00 55 1011.5
20260505232503 54 0 0.0 0.0 0.00 0.25 0.00 55 1011.6
20260505232004 54 0 0.0 0.0 0.00 0.25 0.00 55 1011.5
20260505231504 54 0 0.0 0.0 0.00 0.25 0.00 55 1011.6
20260505231003 54 0 0.0 0.0 0.00 0.25 0.00 55 1011.8
20260505230503 54 0 0.0 0.0 0.00 0.25 0.00 56 1012.0
20260505230003 54 0 0.0 0.0 0.00 0.25 0.00 56 1012.0
20260505225503 54 0 0.0 0.0 0.00 0.25 0.00 56 1012.0
20260505225003 54 0 0.0 0.0 0.00 0.25 0.00 56 1011.8
20260505224503 54 0 0.0 0.0 0.00 0.25 0.00 56 1011.7